Погода в Новоомском

Россия / Омская область     54°50′28″N   73°18′03″E
темп.,
°C
ветер,
м/с
пор.,
м/с
влажн.,
%
обл.,
%
осадки,
мм/ч
давл.,
гПа
погр.,
м
29 мая, вс
вс2900:00+17ююз61147100 0.0 1013292
03:00+16ююз5125359 0.0 1013404
06:00+13юз486997 0.0 1013251
09:00+18з57535 0.2 1014698
12:00+21з78400 0.2 10141886
15:00+23з79345 0.0 10142246
18:00+24з6113690 0.0 10132253
21:00+21зюз4125116 0.0 1012373
30 мая, пн
пн3000:00+17з412771 0.3 1014419
03:00+14зюз512870 0.0 1014323
06:00+14з6127319 0.0 1015498
09:00+18зсз8124938 0.0 10161153
12:00+21зсз811355 0.0 10161765
15:00+23зсз8113089 0.0 10152048
18:00+22зсз7936100 0.0 10141594
21:00+17с2255100 0.0 101311
31 мая, вт
вт3100:00+17ю3552100 0.0 1012121
03:00+16юз4869100 0.1 1010297
06:00+16зюз6118399 0.2 1008816
09:00+16зсз8116876 0.1 10081152
12:00+18з8114795 0.1 10072023
15:00+17з8135068 0.1 10061931
18:00+12з91681100 0.8 10061519
21:00+13зсз9147893 0.4 1005975
1 июня, ср
ср100:00+10зсз7158295 0.5 1006762
03:00+10зсз6118381 0.1 1007483
06:00+9сз6128179 0.1 1008434
09:00+13сз795011 0.0 1009796
12:00+16сз8935100 0.0 10092022
15:00+17сз81033100 0.0 10082372
18:00+15сз61147100 0.0 10091718
21:00+12сз91467100 0.8 1010918
2 июня, чт
чт200:00+8сз612817 0.9 1010404
03:00+7сз5128195 0.0 1010302
06:00+6ссз6128296 0.0 1012599
09:00+8ссз8105742 0.0 10131370
12:00+9ссз8105397 0.0 10151667
15:00+8ссз81052100 0.0 10171683
18:00+8ссз7955100 0.0 10191724
21:00+7ссз5956100 0.0 10211431